Weather History for Highgate, VT

Change the Weather History Date:

Friday, November 16, 2012

  Actual Average (KPBG) Record (KPBG)
Temperature  
Mean Temperature 28 °F 37 °F  
Max Temperature 38 °F 46 °F 69 °F (1989)
Min Temperature 18 °F 27 °F 11 °F (1967)
Degree Days  
Heating Degree Days 37 28  
Month to date heating degree days 409  
Since 1 July heating degree days 1192  
Moisture  
Dew Point 23 °F    
Average Humidity 81    
Maximum Humidity 95    
Minimum Humidity 56    
Precipitation  
Precipitation 0.00 in - 0.62 in (1951)
Month to date precipitation  
Year to date precipitation  
Sea Level Pressure  
Sea Level Pressure 30.41 in    
Wind  
Wind Speed 1 mph (ENE)    
Max Wind Speed 6 mph    
Max Gust Speed -    
Visibility 10 miles    
Events      
T = Trace of Precipitation, MM = Missing Value Source: NWS Daily Summary

Daily Weather History Graph

Daily Weather History Graph

Search for Another Location

Airport:

Trip Planner

Search our weather history database for the weather conditions in past years. The results will help you decide how hot, cold, wet, or windy it might be!

Date:

Astronomy

Nov. 16, 2012 Rise Set
Actual Time 6:51 AM EST 4:22 PM EST
Civil Twilight 6:19 AM EST 4:54 PM EST
Nautical Twilight 5:44 AM EST 5:29 PM EST
Astronomical Twilight 5:09 AM EST 6:04 PM EST
Moon 9:46 AM EST 7:16 PM EST
Length of Visible Light 10h 34m
Length of Day
9h 30m
Waxing Crescent, 11% of the Moon is Illuminated
Nov 16
Waxing Crescent
Nov 20
First Quarter
Nov 28
Full
Dec 6
Last Quarter
Dec 13
New

Hourly Weather History & Observations

Time (EST) Temp. Windchill Dew Point Humidity Pressure Visibility Wind Dir Wind Speed Gust Speed Precip Events Conditions
12:15 AM 22.1 °F 17.4 °F 20.5 °F 93% 30.35 in 10.0 mi ESE 3.5 mph - N/A   Clear
12:35 AM 22.1 °F - 20.7 °F 94% 30.35 in 10.0 mi Calm Calm - N/A   Clear
12:55 AM 20.5 °F - 18.9 °F 93% 30.35 in 10.0 mi Calm Calm - N/A   Clear
1:15 AM 21.2 °F - 19.8 °F 94% 30.35 in 10.0 mi Calm Calm - N/A   Clear
1:35 AM 21.9 °F - 20.5 °F 94% 30.35 in 10.0 mi Calm Calm - N/A   Clear
1:55 AM 19.9 °F - 18.5 °F 94% 30.35 in 10.0 mi Calm Calm - N/A   Clear
2:15 AM 20.5 °F - 19.0 °F 94% 30.36 in 10.0 mi Calm Calm - N/A   Clear
2:35 AM 22.1 °F - 20.7 °F 94% 30.35 in 10.0 mi Calm Calm - N/A   Clear
2:55 AM 21.0 °F - 19.4 °F 93% 30.35 in 10.0 mi Calm Calm - N/A   Clear
3:15 AM 20.7 °F - 19.2 °F 94% 30.35 in 10.0 mi Calm Calm - N/A   Clear
3:35 AM 20.8 °F - 19.4 °F 94% 30.35 in 10.0 mi Calm Calm - N/A   Clear
3:55 AM 20.3 °F - 18.9 °F 94% 30.35 in 10.0 mi Calm Calm - N/A   Clear
4:15 AM 19.8 °F - 18.3 °F 94% 30.36 in 10.0 mi Calm Calm - N/A   Clear
4:55 AM 19.8 °F - 18.3 °F 94% 30.36 in 10.0 mi Calm Calm - N/A   Clear
5:15 AM 19.4 °F - 18.1 °F 95% 30.37 in 10.0 mi Calm Calm - N/A   Clear
5:35 AM 19.4 °F - 18.0 °F 94% 30.37 in 10.0 mi Calm Calm - N/A   Scattered Clouds
5:55 AM 19.4 °F - 18.0 °F 94% 30.38 in 10.0 mi Calm Calm - N/A   Scattered Clouds
6:15 AM 19.9 °F - 18.5 °F 94% 30.38 in 10.0 mi Calm Calm - N/A   Scattered Clouds
6:35 AM 19.8 °F - 18.3 °F 94% 30.38 in 10.0 mi Calm Calm - N/A   Scattered Clouds
6:55 AM 18.7 °F - 17.1 °F 93% 30.38 in 10.0 mi Calm Calm - N/A   Clear
7:15 AM 19.4 °F - 18.1 °F 95% 30.39 in 10.0 mi Calm Calm - N/A   Clear
7:35 AM 18.3 °F - 16.7 °F 93% 30.39 in 10.0 mi Calm Calm - N/A   Clear
7:55 AM 19.0 °F - 17.8 °F 95% 30.39 in 10.0 mi Calm Calm - N/A   Clear
8:15 AM 22.1 °F 17.4 °F 20.3 °F 93% 30.40 in 10.0 mi ESE 3.5 mph - N/A   Clear
8:35 AM 24.6 °F 20.3 °F 23.0 °F 94% 30.40 in 10.0 mi SE 3.5 mph - N/A   Clear
8:55 AM 27.1 °F 23.2 °F 25.3 °F 93% 30.40 in 10.0 mi SE 3.5 mph - N/A   Clear
9:15 AM 27.1 °F - 24.8 °F 91% 30.40 in 10.0 mi Calm Calm - N/A   Clear
9:35 AM 28.4 °F - 25.3 °F 88% 30.41 in 10.0 mi Calm Calm - N/A   Clear
9:55 AM 31.3 °F - 27.1 °F 85% 30.41 in 10.0 mi Calm Calm - N/A   Clear
10:15 AM 32.0 °F - 27.0 °F 82% 30.41 in 10.0 mi Calm Calm - N/A   Clear
10:35 AM 32.0 °F - 26.2 °F 79% 30.41 in 10.0 mi Calm Calm - N/A   Clear
10:55 AM 32.0 °F - 25.2 °F 76% 30.41 in 10.0 mi Calm Calm - N/A   Clear
11:15 AM 34.3 °F - 25.9 °F 71% 30.41 in 10.0 mi Calm Calm - N/A   Clear
11:35 AM 34.3 °F - 23.7 °F 65% 30.40 in 10.0 mi Calm Calm - N/A   Clear
11:55 AM 36.7 °F 34.1 °F 24.1 °F 60% 30.39 in 10.0 mi West 3.5 mph - N/A   Clear
12:15 PM 34.9 °F - 21.9 °F 59% 30.39 in 10.0 mi Calm Calm - N/A   Clear
12:35 PM 36.9 °F 34.3 °F 23.2 °F 58% 30.39 in 10.0 mi NW 3.5 mph - N/A   Clear
12:55 PM 36.9 °F - 23.7 °F 59% 30.38 in 10.0 mi Calm Calm - N/A   Clear
1:15 PM 37.9 °F - 23.7 °F 57% 30.38 in 10.0 mi Calm Calm - N/A   Clear
1:35 PM 37.6 °F 35.1 °F 23.5 °F 57% 30.38 in 10.0 mi West 3.5 mph - N/A   Clear
1:55 PM 38.1 °F - 23.9 °F 57% 30.38 in 10.0 mi Calm Calm - N/A   Clear
2:15 PM 38.3 °F - 23.9 °F 56% 30.39 in 10.0 mi Calm Calm - N/A   Clear
2:35 PM 38.7 °F 34.3 °F 25.0 °F 58% 30.40 in 10.0 mi North 5.8 mph - N/A   Clear
2:55 PM 38.3 °F 35.9 °F 24.8 °F 58% 30.40 in 10.0 mi North 3.5 mph - N/A   Clear
3:15 PM 37.8 °F - 25.0 °F 60% 30.40 in 10.0 mi Calm Calm - N/A   Clear
3:35 PM 37.0 °F - 24.3 °F 60% 30.41 in 10.0 mi Calm Calm - N/A   Clear
3:55 PM 36.9 °F - 24.3 °F 60% 30.41 in 10.0 mi Calm Calm - N/A   Clear
4:15 PM 35.6 °F - 24.3 °F 63% 30.41 in 10.0 mi Calm Calm - N/A   Clear
4:35 PM 34.7 °F - 23.9 °F 65% 30.41 in 10.0 mi Calm Calm - N/A   Clear
4:55 PM 34.0 °F - 24.6 °F 69% 30.41 in 10.0 mi Calm Calm - N/A   Clear
5:15 PM 32.0 °F - 24.6 °F 74% 30.42 in 10.0 mi Calm Calm - N/A   Clear
5:35 PM 30.0 °F - 23.9 °F 78% 30.43 in 10.0 mi Calm Calm - N/A   Clear
5:55 PM 29.7 °F - 24.8 °F 82% 30.45 in 10.0 mi Calm Calm - N/A   Clear
6:15 PM 28.8 °F - 24.3 °F 83% 30.45 in 10.0 mi Calm Calm - N/A   Mostly Cloudy
6:35 PM 29.7 °F - 25.7 °F 85% 30.45 in 10.0 mi Calm Calm - N/A   Overcast
6:55 PM 32.0 °F - 28.2 °F 86% 30.44 in 10.0 mi Calm Calm - N/A   Overcast
7:15 PM 32.0 °F 28.7 °F 27.3 °F 83% 30.44 in 10.0 mi ESE 3.5 mph - N/A   Overcast
7:35 PM 32.0 °F - 26.6 °F 80% 30.45 in 10.0 mi Calm Calm - N/A   Overcast
7:55 PM 32.0 °F - 26.6 °F 80% 30.45 in 10.0 mi Calm Calm - N/A   Overcast
8:15 PM 32.0 °F - 26.2 °F 79% 30.46 in 10.0 mi Calm Calm - N/A   Overcast
8:35 PM 32.0 °F - 26.4 °F 80% 30.46 in 10.0 mi Calm Calm - N/A   Overcast
9:15 PM 34.3 °F - 27.3 °F 76% 30.47 in 10.0 mi Calm Calm - N/A   Overcast
9:35 PM 34.3 °F - 27.1 °F 75% 30.48 in 10.0 mi Calm Calm - N/A   Overcast
9:55 PM 34.0 °F - 27.3 °F 77% 30.47 in 10.0 mi Calm Calm - N/A   Overcast
10:15 PM 32.0 °F - 27.0 °F 82% 30.48 in 10.0 mi Calm Calm - N/A   Overcast
10:35 PM 32.0 °F - 26.4 °F 80% 30.48 in 10.0 mi Calm Calm - N/A   Mostly Cloudy
10:55 PM 32.0 °F - 28.0 °F 85% 30.48 in 10.0 mi Calm Calm - N/A   Mostly Cloudy
11:15 PM 29.7 °F - 25.7 °F 85% 30.48 in 10.0 mi Calm Calm - N/A   Overcast
11:35 PM 30.4 °F - 26.6 °F 86% 30.49 in 10.0 mi Calm Calm - N/A   Mostly Cloudy
11:55 PM 30.0 °F - 25.9 °F 85% 30.49 in 10.0 mi Calm Calm - N/A   Scattered Clouds